Weather History for New Bedford, MA

Change the Weather History Date:

Tuesday, October 22, 2013

  Actual Average Record
Temperature  
Mean Temperature 52 °F -  
Max Temperature 66 °F 63 °F 82 °F (1979)
Min Temperature 39 °F 45 °F 28 °F (2002)
Degree Days  
Heating Degree Days 12    
Growing Degree Days 2 (Base 50)    
Moisture  
Dew Point 46 °F    
Average Humidity 79    
Maximum Humidity 96    
Minimum Humidity 57    
Precipitation  
Precipitation 0.00 in - - ()
Sea Level Pressure  
Sea Level Pressure 29.83 in    
Wind  
Wind Speed 3 mph (SW)    
Max Wind Speed 15 mph    
Max Gust Speed 20 mph    
Visibility 10 miles    
Events      
Averages and records for this station are not official NWS values.
T = Trace of Precipitation, MM = Missing Value Source: NWS Daily Summary

Daily Weather History Graph

Daily Weather History Graph

Search for Another Location

Airport:

Trip Planner

Search our weather history database for the weather conditions in past years. The results will help you decide how hot, cold, wet, or windy it might be!

Date:

Astronomy

Oct. 22, 2013 Rise Set
Actual Time 7:04 AM EDT 5:51 PM EDT
Civil Twilight 6:35 AM EDT 6:19 PM EDT
Nautical Twilight 6:03 AM EDT 6:52 PM EDT
Astronomical Twilight 5:31 AM EDT 7:24 PM EDT
Moon 8:27 PM EDT (10/22) 10:31 AM EDT (10/22)
Length of Visible Light 11h 44m
Length of Day
10h 47m
Waning Gibbous, 87% of the Moon is Illuminated
Oct 22
Waning Gibbous
Oct 26
Last Quarter
Nov 3
New
Nov 10
First Quarter
Nov 17
Full

Hourly Weather History & Observations

Time (EDT) Temp. Dew Point Humidity Pressure Visibility Wind Dir Wind Speed Gust Speed Precip Events Conditions
12:53 AM 41.0 °F 39.9 °F 96% 30.01 in 9.0 mi Calm Calm - N/A   Clear
1:53 AM 41.0 °F 39.9 °F 96% 29.99 in 10.0 mi Calm Calm - N/A   Clear
2:53 AM 39.9 °F 37.9 °F 93% 29.98 in 10.0 mi Calm Calm - N/A   Partly Cloudy
3:53 AM 41.0 °F 39.9 °F 96% 29.95 in 10.0 mi Calm Calm - N/A   Mostly Cloudy
4:53 AM 39.9 °F 37.9 °F 93% 29.94 in 10.0 mi Calm Calm - N/A   Partly Cloudy
5:53 AM 39.9 °F 37.9 °F 93% 29.92 in 8.0 mi Calm Calm - N/A   Clear
6:38 AM 39.2 °F 37.4 °F 93% 29.91 in 7.0 mi Calm Calm - N/A   Scattered Clouds
6:53 AM 39.9 °F 37.9 °F 93% 29.91 in 10.0 mi Calm Calm - N/A   Scattered Clouds
7:53 AM 41.0 °F 37.9 °F 89% 29.90 in 10.0 mi Calm Calm - N/A   Clear
8:53 AM 54.0 °F 50.0 °F 86% 29.88 in 10.0 mi Calm Calm - N/A   Clear
9:53 AM 63.0 °F 52.0 °F 67% 29.86 in 10.0 mi SSW 10.4 mph - N/A   Clear
10:53 AM 64.9 °F 50.0 °F 58% 29.83 in 10.0 mi SW 15.0 mph 19.6 mph N/A   Scattered Clouds
11:53 AM 66.9 °F 51.1 °F 57% 29.80 in 10.0 mi SW 13.8 mph 19.6 mph N/A   Clear
12:53 PM 66.0 °F 52.0 °F 60% 29.79 in 10.0 mi SSW 11.5 mph - N/A   Mostly Cloudy
1:53 PM 66.0 °F 53.1 °F 63% 29.76 in 10.0 mi South 10.4 mph - N/A   Scattered Clouds
2:53 PM 64.9 °F 52.0 °F 63% 29.74 in 10.0 mi South 10.4 mph 17.3 mph N/A   Clear
3:53 PM 63.0 °F 52.0 °F 67% 29.73 in 10.0 mi SSW 12.7 mph - N/A   Overcast
4:53 PM 62.1 °F 51.1 °F 67% 29.73 in 10.0 mi SW 11.5 mph - N/A   Mostly Cloudy
5:53 PM 61.0 °F 52.0 °F 72% 29.72 in 10.0 mi SW 8.1 mph - N/A   Overcast
6:53 PM 60.1 °F 53.1 °F 78% 29.72 in 10.0 mi SW 8.1 mph - N/A   Mostly Cloudy
7:53 PM 57.9 °F 53.1 °F 84% 29.73 in 10.0 mi West 4.6 mph - N/A   Clear
8:53 PM 55.0 °F 50.0 °F 83% 29.74 in 10.0 mi WNW 4.6 mph - N/A   Partly Cloudy
9:53 PM 55.0 °F 48.0 °F 77% 29.76 in 10.0 mi NW 6.9 mph - N/A   Clear
10:53 PM 52.0 °F 43.0 °F 71% 29.77 in 10.0 mi Calm Calm - N/A   Clear
11:53 PM 48.0 °F 41.0 °F 77% 29.78 in 10.0 mi Calm Calm - N/A   Clear